Rocky Mount, NC

9:08 PM EST on December 17, 2017 (GMT -0500)
Rocky Mount-Wilson Regional

Weather History for KRWI - July, 2013

Change the Weather History Date:

Sunday, July 28, 2013

  Actual Average Record
Temperature  
Mean Temperature 80 °F -  
Max Temperature 88 °F 89 °F 98 °F (1955)
Min Temperature 73 °F 69 °F 54 °F (1962)
Cooling Degree Days 16    
Growing Degree Days 30 (Base 50)    
Moisture  
Dew Point 71 °F    
Average Humidity 78    
Maximum Humidity 96    
Minimum Humidity 55    
Precipitation  
Precipitation 0.00 in - - ()
Sea Level Pressure  
Sea Level Pressure 29.96 in    
Wind  
Wind Speed 4 mph (SSW)    
Max Wind Speed 9 mph    
Max Gust Speed -    
Visibility 9 miles    
Events      
Averages and records for this station are not official NWS values.
T = Trace of Precipitation, MM = Missing Value Source: NWS Daily Summary

Daily Weather History Graph

Daily Weather History Graph

Search for Another Location

Airport or City:

Trip Planner

Search our weather history database for the weather conditions in past years. The results will help you decide how hot, cold, wet, or windy it might be!

Date:

Astronomy

Jul. 28, 2013 Rise Set
Actual Time 6:16 AM EDT 8:19 PM EDT
Civil Twilight 5:47 AM EDT 8:47 PM EDT
Nautical Twilight 5:13 AM EDT 9:22 PM EDT
Astronomical Twilight 4:35 AM EDT 9:59 PM EDT
Moon 11:55 PM EDT (7/28) 12:41 PM EDT (7/28)
Length of Visible Light 14h 59m
Length of Day
14h 03m
Waning Gibbous, 61% of the Moon is Illuminated
Jul 28
Waning Gibbous
Jul 29
Last Quarter
Aug 6
New
Aug 14
First Quarter
Aug 20
Full

Hourly Weather History & Observations

Time (EDT) Temp. Heat Index Dew Point Humidity Pressure Visibility Wind Dir Wind Speed Gust Speed Precip Events Conditions
12:53 AM 73.9 °F - 71.1 °F 91% 29.96 in 8.0 mi South 4.6 mph - N/A   Partly Cloudy
1:53 AM 73.9 °F - 72.0 °F 93% 29.94 in 9.0 mi South 3.5 mph - N/A   Clear
2:53 AM 73.9 °F - 72.0 °F 93% 29.91 in 8.0 mi Calm Calm - N/A   Clear
3:53 AM 73.0 °F - 72.0 °F 96% 29.93 in 6.0 mi Calm Calm - N/A   Scattered Clouds
4:17 AM 73.4 °F - 71.6 °F 94% 29.93 in 6.0 mi Calm Calm - N/A   Mostly Cloudy
4:53 AM 73.0 °F - 72.0 °F 96% 29.93 in 4.0 mi Calm Calm - N/A   Overcast
5:53 AM 73.9 °F - 72.0 °F 93% 29.94 in 8.0 mi Calm Calm - N/A   Mostly Cloudy
6:04 AM 73.4 °F - 71.6 °F 94% 29.95 in 7.0 mi Calm Calm - N/A   Scattered Clouds
6:53 AM 73.9 °F - 72.0 °F 93% 29.95 in 4.0 mi Calm Calm - N/A   Clear
7:53 AM 75.0 °F - 72.0 °F 90% 29.96 in 9.0 mi WNW 4.6 mph - N/A   Clear
8:53 AM 77.0 °F - 71.1 °F 82% 29.96 in 10.0 mi West 4.6 mph - N/A   Clear
9:53 AM 80.1 °F 83.8 °F 72.0 °F 76% 29.96 in 10.0 mi SSW 5.8 mph - N/A   Mostly Cloudy
10:25 AM 80.6 °F 84.6 °F 71.6 °F 74% 29.97 in 10.0 mi South 4.6 mph - N/A   Partly Cloudy
10:53 AM 82.0 °F 86.7 °F 72.0 °F 71% 29.97 in 10.0 mi South 4.6 mph - N/A   Partly Cloudy
11:06 AM 82.4 °F 87.2 °F 71.6 °F 70% 29.98 in 10.0 mi SSW 4.6 mph - N/A   Mostly Cloudy
11:19 AM 80.6 °F 83.9 °F 69.8 °F 70% 29.98 in 10.0 mi WSW 4.6 mph - N/A   Scattered Clouds
11:28 AM 82.4 °F 86.3 °F 69.8 °F 66% 29.98 in 10.0 mi WSW 5.8 mph - N/A   Mostly Cloudy
11:36 AM 80.6 °F 84.6 °F 71.6 °F 74% 29.98 in 10.0 mi WSW 5.8 mph - N/A   Mostly Cloudy
11:53 AM 82.0 °F 86.3 °F 71.1 °F 69% 29.98 in 10.0 mi WSW 8.1 mph - N/A   Scattered Clouds
12:53 PM 84.9 °F 90.7 °F 72.0 °F 65% 29.98 in 10.0 mi SSW 9.2 mph - N/A   Partly Cloudy
1:53 PM 86.0 °F 92.2 °F 72.0 °F 63% 29.96 in 10.0 mi Variable 5.8 mph - N/A   Mostly Cloudy
2:53 PM 88.0 °F 92.9 °F 70.0 °F 55% 29.94 in 10.0 mi SSW 9.2 mph - N/A   Partly Cloudy
3:53 PM 86.0 °F 92.2 °F 72.0 °F 63% 29.95 in 10.0 mi SSW 8.1 mph - N/A   Partly Cloudy
4:53 PM 86.0 °F 90.1 °F 69.1 °F 57% 29.94 in 10.0 mi South 8.1 mph - N/A   Clear
5:53 PM 86.0 °F 90.7 °F 70.0 °F 59% 29.94 in 10.0 mi SSW 5.8 mph - N/A   Clear
6:53 PM 84.9 °F 90.7 °F 72.0 °F 65% 29.95 in 10.0 mi SSW 6.9 mph - N/A   Clear
7:53 PM 81.0 °F 85.2 °F 72.0 °F 74% 29.96 in 10.0 mi South 3.5 mph - N/A   Clear
8:53 PM 78.1 °F - 73.0 °F 84% 29.97 in 9.0 mi Calm Calm - N/A   Partly Cloudy
9:53 PM 78.1 °F - 71.1 °F 79% 30.00 in 10.0 mi South 6.9 mph - N/A   Clear
10:53 PM 78.1 °F - 72.0 °F 81% 30.00 in 10.0 mi South 6.9 mph - N/A   Clear
11:53 PM 77.0 °F - 72.0 °F 84% 30.01 in 10.0 mi SSW 6.9 mph - N/A   Clear